Погода в Порте-Катоне

Россия / Ростовская область     46°52′39″N   38°45′14″E
темп.,
°C
ветер,
м/с
пор.,
м/с
влажн.,
%
обл.,
%
осадки,
мм/ч
давл.,
гПа
погр.,
м
27 октября, ср
ср2700:00+6вюв56474 0.0 1032296
03:00+5вюв67545 0.0 1031306
06:00+4вюв67585 0.0 1030301
09:00+5вюв67565 0.0 1030326
12:00+8в56420 0.0 1028569
15:00+10всв44440 0.0 1026252
18:00+10в45500 0.0 1025137
21:00+9вюв33490 0.0 1025132
28 октября, чт
чт2800:00+8в22520 0.0 1025171
03:00+8св44580 0.0 1024254
06:00+7всв33570 0.0 1024235
09:00+7св22562 0.0 1025268
12:00+7зюз1149100 0.0 1025185
15:00+8з3446100 0.0 1024215
18:00+9зюз4452100 0.0 1024176
21:00+10з556575 0.0 1024232
29 октября, пт
пт2900:00+10зюз457597 0.0 1023205
03:00+10зюз467799 0.0 1023182
06:00+10з4575100 0.0 1024123
09:00+10с3377100 0.1 1025159
12:00+10св3382100 0.1 1025174
15:00+11св337876 0.2 102675
18:00+11в45785 0.0 102765
21:00+10в47825 0.0 1028128
30 октября, сб
сб3000:00+10всв610857 0.0 1029312
03:00+9в710885 0.0 1030398
06:00+8в711885 0.0 1031432
09:00+9в811825 0.0 1032490
12:00+11всв79751 0.0 1031415
15:00+12всв79650 0.0 1030249
18:00+12всв69610 0.0 1031111
21:00+11всв711670 0.0 1030224
31 октября, вс
вс3100:00+10всв712760 0.0 1030288
03:00+9всв813812 0.0 1029403
06:00+9всв914800 0.0 1029438
09:00+9всв1013800 0.0 1028411
12:00+12всв9126925 0.0 1027335
15:00+13в811670 0.0 1025238
18:00+13в8126496 0.0 1025181
21:00+12в81361100 0.0 1024239